This is the latest recevied weather packets stored in our database for station/object OK1FET-14. If no packets are shown the sender has not sent any weather packets the latest 10 day(s).
| Time | Temp. | Humidity | Pressure | Rain* | Wind** | Luminosity | Snow |
|---|---|---|---|---|---|---|---|
| 1787490378 | 22.78° C | 37% | 1024 hPa | - | - | - | - |
| 1787490097 | 22.78° C | 40% | 1023.9 hPa | - | - | - | - |
| 1787490097 | 22.78° C | 40% | 1023.9 hPa | - | - | - | - |
| 1787490097 | 22.78° C | 40% | 1023.9 hPa | - | - | - | - |
| 1787489815 | 22.22° C | 40% | 1024 hPa | - | - | - | - |
| 1787489815 | 22.22° C | 40% | 1024 hPa | - | - | - | - |
| 1787489815 | 22.22° C | 40% | 1024 hPa | - | - | - | - |
| 1787489534 | 20.56° C | 42% | 1024.1 hPa | - | - | - | - |
| 1787489534 | 20.56° C | 42% | 1024.1 hPa | - | - | - | - |
| 1787489253 | 22.78° C | 39% | 1023.9 hPa | - | - | - | - |
| 1787489253 | 22.78° C | 39% | 1023.9 hPa | - | - | - | - |
| 1787488972 | 21.11° C | 42% | 1024 hPa | - | - | - | - |
| 1787488972 | 21.11° C | 42% | 1024 hPa | - | - | - | - |
| 1787488972 | 21.11° C | 42% | 1024 hPa | - | - | - | - |
| 1787488691 | 22.22° C | 42% | 1024.1 hPa | - | - | - | - |
| 1787488691 | 22.22° C | 42% | 1024.1 hPa | - | - | - | - |
| 1787488691 | 22.22° C | 42% | 1024.1 hPa | - | - | - | - |
| 1787488410 | 20.56° C | 44% | 1024.1 hPa | - | - | - | - |
| 1787488410 | 20.56° C | 44% | 1024.1 hPa | - | - | - | - |
| 1787488410 | 20.56° C | 44% | 1024.1 hPa | - | - | - | - |
| 1787488129 | 22.22° C | 41% | 1024.2 hPa | - | - | - | - |
| 1787488129 | 22.22° C | 41% | 1024.2 hPa | - | - | - | - |
| 1787488129 | 22.22° C | 41% | 1024.2 hPa | - | - | - | - |
| 1787487847 | 21.11° C | 43% | 1024.2 hPa | - | - | - | - |
| 1787487847 | 21.11° C | 43% | 1024.2 hPa | - | - | - | - |
* Rain since midnight (hover to see other rain measurements)
** Current wind speed in m/s (hover to see current wind gust speed)